Seward, AK

7:10 AM AKST on February 25, 2018 (GMT -0900)
Seward

Weather History for PAWD - July, 2012

Change the Weather History Date:

Tuesday, July 17, 2012

  Actual Average Record
Temperature  
Mean Temperature 58 °F -  
Max Temperature 69 °F 63 °F 80 °F (1974)
Min Temperature 48 °F 50 °F 44 °F (1955)
Degree Days  
Heating Degree Days 7    
Growing Degree Days 8 (Base 50)    
Moisture  
Dew Point 47 °F    
Average Humidity 69    
Maximum Humidity 93    
Minimum Humidity 43    
Precipitation  
Precipitation 0.00 in - - ()
Sea Level Pressure  
Sea Level Pressure 30.06 in    
Wind  
Wind Speed 6 mph (ENE)    
Max Wind Speed 13 mph    
Max Gust Speed 20 mph    
Visibility 10 miles    
Events      
Averages and records for this station are not official NWS values.
T = Trace of Precipitation, MM = Missing Value Source: NWS Daily Summary

Daily Weather History Graph

Daily Weather History Graph

Search for Another Location

Airport or City:

Trip Planner

Search our weather history database for the weather conditions in past years. The results will help you decide how hot, cold, wet, or windy it might be!

Date:

Astronomy

Jul. 17, 2012 Rise Set
Actual Time 5:05 AM AKDT 11:00 PM AKDT
Civil Twilight 3:49 AM AKDT 12:15 AM AKDT
Nautical Twilight Sun does not rise Sun does not rise
Astronomical Twilight Sun does not rise Sun does not rise
Moon 3:56 AM AKDT (7/17) 9:44 PM AKDT (7/17)
Length of Visible Light 20h 26m
Length of Day
17h 55m
Waning Crescent, 2% of the Moon is Illuminated
Jul 17
Waning Crescent
Jul 18
New
Jul 26
First Quarter
Aug 1
Full
Aug 9
Last Quarter

Hourly Weather History & Observations

Time (AKDT) Temp. Dew Point Humidity Pressure Visibility Wind Dir Wind Speed Gust Speed Precip Events Conditions
12:53 AM 51.1 °F 48.9 °F 92% 30.15 in 10.0 mi Calm Calm - N/A   Overcast
1:53 AM 48.9 °F 46.9 °F 93% 30.14 in 10.0 mi Calm Calm - N/A   Mostly Cloudy
2:53 AM 55.9 °F 46.0 °F 69% 30.14 in 10.0 mi NNE 9.2 mph - N/A   Clear
3:53 AM 54.0 °F 46.0 °F 75% 30.13 in 10.0 mi North 9.2 mph - N/A   Clear
4:53 AM 52.0 °F 45.0 °F 77% 30.13 in 10.0 mi NNE 9.2 mph - N/A   Clear
5:53 AM 52.0 °F 45.0 °F 77% 30.12 in 10.0 mi NNE 9.2 mph - N/A   Clear
6:53 AM 53.1 °F 45.0 °F 74% 30.12 in 10.0 mi North 11.5 mph - N/A   Clear
7:53 AM 55.0 °F 45.0 °F 69% 30.10 in 10.0 mi NNE 10.4 mph - N/A   Clear
8:53 AM 59.0 °F 46.9 °F 64% 30.10 in 10.0 mi NNE 8.1 mph - N/A   Clear
9:53 AM 61.0 °F 46.0 °F 58% 30.09 in 10.0 mi NE 11.5 mph - N/A   Clear
10:53 AM 64.0 °F 46.0 °F 52% 30.08 in 10.0 mi NNE 10.4 mph - N/A   Clear
11:53 AM 66.9 °F 46.0 °F 47% 30.06 in 10.0 mi NNW 5.8 mph - N/A   Clear
12:53 PM 68.0 °F 45.0 °F 43% 30.04 in 10.0 mi WNW 3.5 mph - N/A   Clear
1:53 PM 61.0 °F 51.1 °F 70% 30.04 in 10.0 mi SSE 9.2 mph - N/A   Clear
2:53 PM 62.1 °F 51.1 °F 67% 30.04 in 10.0 mi South 9.2 mph - N/A   Clear
3:53 PM 61.0 °F 46.9 °F 60% 30.02 in 10.0 mi South 12.7 mph 19.6 mph N/A   Clear
4:53 PM 63.0 °F 46.9 °F 56% 30.01 in 10.0 mi South 6.9 mph - N/A   Clear
5:53 PM 63.0 °F 48.0 °F 58% 30.01 in 10.0 mi SSE 8.1 mph - N/A   Clear
6:53 PM 62.1 °F 48.0 °F 60% 30.00 in 10.0 mi South 6.9 mph - N/A   Clear
7:53 PM 60.1 °F 50.0 °F 69% 29.99 in 10.0 mi SSE 5.8 mph - N/A   Clear
8:53 PM 55.9 °F 48.9 °F 77% 29.99 in 10.0 mi SE 5.8 mph - N/A   Clear
9:53 PM 55.0 °F 48.0 °F 77% 29.99 in 10.0 mi Calm Calm - N/A   Clear
10:53 PM 54.0 °F 50.0 °F 86% 29.99 in 10.0 mi Calm Calm - N/A   Clear
11:53 PM 51.1 °F 48.9 °F 92% 29.99 in 10.0 mi Calm Calm - N/A   Clear